Weather History for KMRB - May, 2013

Change the Weather History Date:

Tuesday, May 28, 2013

  Actual Average Record
Temperature  
Mean Temperature 67 °F 65 °F  
Max Temperature 80 °F 76 °F 96 °F (1941)
Min Temperature 53 °F 53 °F 36 °F (1994)
Degree Days  
Heating Degree Days 0 3  
Month to date heating degree days 165 161  
Since 1 July heating degree days 4906 5218  
Cooling Degree Days 2 3  
Month to date cooling degree days 50 43  
Year to date cooling degree days 81 52  
Growing Degree Days 16 (Base 50)    
Moisture  
Dew Point 58 °F    
Average Humidity 76    
Maximum Humidity 93    
Minimum Humidity 58    
Precipitation  
Precipitation 0.06 in 0.13 in 1.50 in (1960)
Month to date precipitation 2.15 3.70  
Year to date precipitation 11.26 15.34  
Sea Level Pressure  
Sea Level Pressure 30.12 in    
Wind  
Wind Speed 2 mph (NE)    
Max Wind Speed 10 mph    
Max Gust Speed 21 mph    
Visibility 9 miles    
Events Rain    
T = Trace of Precipitation, MM = Missing Value Source: NWS Daily Summary

Daily Weather History Graph

Daily Weather History Graph

Search for Another Location

Airport or City:

Trip Planner

Search our weather history database for the weather conditions in past years. The results will help you decide how hot, cold, wet, or windy it might be!

Date:

Astronomy

May. 28, 2013 Rise Set
Actual Time 5:48 AM EDT 8:30 PM EDT
Civil Twilight 5:17 AM EDT 9:01 PM EDT
Nautical Twilight 4:38 AM EDT 9:41 PM EDT
Astronomical Twilight 3:53 AM EDT 10:25 PM EDT
Moon 11:53 PM EDT (5/28) 9:34 AM EDT (5/28)
Length of Visible Light 15h 44m
Length of Day
14h 41m
Waning Gibbous, 83% of the Moon is Illuminated
May 28
Waning Gibbous
May 31
Last Quarter
Jun 8
New
Jun 16
First Quarter
Jun 23
Full

Hourly Weather History & Observations

Time (EDT) Temp. Dew Point Humidity Pressure Visibility Wind Dir Wind Speed Gust Speed Precip Events Conditions
12:53 AM 55.0 °F 52.0 °F 89% 30.19 in 10.0 mi Calm Calm - N/A   Scattered Clouds
1:53 AM 55.0 °F 52.0 °F 89% 30.19 in 10.0 mi Calm Calm - N/A   Mostly Cloudy
2:53 AM 53.1 °F 51.1 °F 93% 30.17 in 10.0 mi Calm Calm - N/A   Mostly Cloudy
3:53 AM 54.0 °F 52.0 °F 93% 30.17 in 4.0 mi Calm Calm - 0.02 in Rain Rain
4:53 AM 55.0 °F 53.1 °F 93% 30.15 in 8.0 mi Calm Calm - 0.04 in Rain Light Rain
5:53 AM 54.0 °F 52.0 °F 93% 30.16 in 9.0 mi Calm Calm - N/A   Mostly Cloudy
6:53 AM 55.0 °F 53.1 °F 93% 30.17 in 5.0 mi Calm Calm - 0.00 in Rain Light Rain
7:53 AM 57.0 °F 53.1 °F 87% 30.16 in 6.0 mi North 4.6 mph - 0.00 in   Scattered Clouds
8:53 AM 59.0 °F 54.0 °F 83% 30.19 in 10.0 mi NNW 8.1 mph - N/A   Mostly Cloudy
9:53 AM 57.9 °F 54.0 °F 87% 30.17 in 10.0 mi ENE 3.5 mph - 0.00 in   Overcast
10:53 AM 61.0 °F 55.0 °F 81% 30.16 in 10.0 mi WSW 3.5 mph - 0.00 in   Scattered Clouds
11:53 AM 64.0 °F 55.9 °F 75% 30.15 in 10.0 mi Calm Calm - N/A   Scattered Clouds
12:53 PM 68.0 °F 57.9 °F 70% 30.13 in 10.0 mi Calm Calm - N/A   Clear
1:53 PM 73.0 °F 60.1 °F 64% 30.12 in 10.0 mi ENE 4.6 mph - N/A   Clear
2:53 PM 75.9 °F 62.1 °F 62% 30.10 in 10.0 mi ENE 8.1 mph - N/A   Mostly Cloudy
3:53 PM 78.1 °F 62.1 °F 58% 30.09 in 10.0 mi Variable 6.9 mph - N/A   Clear
4:53 PM 79.0 °F 64.0 °F 60% 30.08 in 10.0 mi Calm Calm - N/A   Partly Cloudy
5:53 PM 79.0 °F 64.0 °F 60% 30.07 in 10.0 mi SE 4.6 mph - N/A   Scattered Clouds
6:53 PM 77.0 °F 66.9 °F 71% 30.06 in 10.0 mi NE 4.6 mph - 0.00 in Rain Light Rain
7:53 PM 75.0 °F 64.9 °F 71% 30.06 in 10.0 mi NNE 5.8 mph - 0.00 in   Clear
8:53 PM 70.0 °F 64.0 °F 81% 30.05 in 10.0 mi Calm Calm - N/A   Clear
9:53 PM 69.1 °F 63.0 °F 81% 30.06 in 8.0 mi Calm Calm - N/A   Clear
10:53 PM 66.9 °F 62.1 °F 84% 30.08 in 8.0 mi NW 3.5 mph - N/A   Clear
11:53 PM 66.0 °F 61.0 °F 84% 30.07 in 7.0 mi Calm Calm - N/A   Clear